Location: Feura Bush
(42.5779°N, 73.8787°W)
Time: 17:24:35
(UTC+00:00)

MOZHAYETS 4 - Visible Passes

Search period start: 03 December 2024 00:00
Search period end: 13 December 2024 00:00
Orbit: 649 x 664 km, 98.3° (Epoch: 03 December)

Date Brightness Start Highest point End Pass type
(mag) Time Alt. Az. Time Alt. Az. Time Alt. Az.
03 Dec 8.5 22:03:36 10° N 22:08:02 53° WNW 22:12:25 10° SSW visible
04 Dec 9.7 22:32:37 10° N 22:36:29 28° WNW 22:40:19 10° SW visible
05 Dec 10.4 23:02:10 10° NNW 23:04:50 16° WNW 23:07:27 10° W visible
06 Dec 8.0 21:52:35 10° N 21:57:07 70° WNW 22:01:36 10° SSW visible
07 Dec 9.2 22:21:27 10° N 22:25:36 36° WNW 22:29:42 10° SW visible
08 Dec 10.2 22:50:43 10° NNW 22:53:57 20° WNW 22:57:10 10° WSW visible
09 Dec 10.7 23:21:13 10° NW 23:22:11 11° WNW 23:23:09 10° WNW visible
10 Dec 8.7 22:10:17 10° N 22:14:37 46° WNW 22:18:55 10° SW visible
11 Dec 9.8 22:39:20 10° NNW 22:43:00 25° WNW 22:46:39 10° WSW visible
12 Dec 10.4 23:09:01 10° NNW 23:11:16 14° WNW 23:13:30 10° W visible
